{"data":{"norad_id":27711,"intl_designator":"2003-012A","name":"USA 169 (MILSTAR-2 4)","alt_names":[],"object_type":"PAYLOAD","status":"ACTIVE","operator":null,"country":"US","launch_date":"2003-04-08","launch_site_code":"AFETR","launch_vehicle":null,"mission":null,"orbit_class":"UNKNOWN","rcs_meters":null,"size_class":null,"mass_kg":null,"dimensions":null,"purposes":["comms"],"wikipedia_slug":null,"has_3d_model":false,"image_url":null,"decayed_at":null,"tle_current":{"epoch":"2026-05-24T23:20:00.100032Z","epoch_age_seconds":71401,"freshness":"FRESH","line1":"1 27711U 03012A   26144.97222338 -.00000270  00000+0  00000+0 0  9995","line2":"2 27711  12.3162  30.0345 0101691   8.0259 346.6480  1.00273010 32710","mean_motion":1.0027301,"eccentricity":0.0101691,"inclination_deg":12.3162,"raan_deg":30.0345,"arg_perigee_deg":8.0259,"mean_anomaly_deg":346.648,"bstar":0,"rev_number":3271,"period_min":1436.07935974,"perigee_km":35357.477669087,"apogee_km":36215.025436349,"semimajor_km":42164.388552718,"source":"CELESTRAK","updated_at":"2026-05-25T13:38:13.814818Z"}}}